IV3CGM-1 Weather Reports


Display with metric or nautical units.
time (UTC)temp
F
wind
direction
speed
MPH
gust
MPH
rain 1hr
in
rain 24hr
in
rain mn
in
humidity
%
barometer
mb
20260507185427 47 0 2.0 6.0 0.00 0.00 0.00 91
20260507184508 47 347 5.0 7.0 0.00 0.00 0.00 92
20260507183428 46 0 5.0 6.0 0.00 0.00 0.00 92
20260507182405 46 6 2.0 5.0 0.00 0.00 0.00 93
20260507181442 46 13 4.0 5.0 0.00 0.00 0.00 95
20260507180406 46 18 2.0 6.0 0.00 0.00 0.00 96
20260507175405 47 60 5.0 6.0 0.00 0.00 0.00 95
20260507174316 46 30 4.0 7.0 0.00 0.00 0.00 95
20260507173331 46 330 6.0 7.0 0.00 0.00 0.00 94
20260507172228 47 13 4.0 7.0 0.00 0.00 0.00 95
20260507171251 47 342 7.0 9.0 0.00 0.00 0.00 93
20260507170314 48 336 9.0 9.0 0.00 0.00 0.00 92
20260507165315 48 336 5.0 12.0 0.00 0.00 0.00 88
20260507164251 49 336 8.0 12.0 0.00 0.00 0.00 86
20260507163228 48 323 5.0 7.0 0.00 0.00 0.00 89
20260507162314 47 330 5.0 7.0 0.00 0.00 0.00 89
20260507161352 48 0 5.0 7.0 0.00 0.00 0.00 85
20260507160339 48 28 5.0 7.0 0.00 0.00 0.00 84
20260507155403 48 66 6.0 7.0 0.00 0.00 0.00 80
20260507154441 49 39 5.0 9.0 0.00 0.00 0.00 80
20260507153428 51 58 9.0 9.0 0.00 0.00 0.00 77
20260507152405 50 58 5.0 7.0 0.00 0.00 0.00 81
20260507151417 49 270 5.0 16.0 0.00 0.00 0.00 71
20260507150427 46 293 13.0 16.0 0.00 0.00 0.00 98
20260507145427 49 338 7.0 13.0 0.00 0.00 0.00 76
20260507144440 49 270 11.0 16.0 0.00 0.00 0.00 71
20260507143515 48 264 12.0 16.0 0.00 0.00 0.00 74
20260507142551 46 276 12.0 29.0 0.00 0.00 0.00 84
20260507141627 46 307 27.0 34.0 0.00 0.00 0.00 85
20260507140604 47 257 24.0 27.0 0.00 0.00 0.00 84
20260507134653 51 252 3.0 6.0 0.00 0.00 0.00 86
20260507133626 52 204 5.0 5.0 0.00 0.00 0.00 84
20260507132626 52 162 3.0 7.0 0.00 0.00 0.00 82
20260507131626 52 150 5.0 6.0 0.00 0.00 0.00 84
20260507130619 52 127 4.0 9.0 0.00 0.00 0.00 86
20260507125650 52 127 6.0 12.0 0.00 0.00 0.00 87
20260507124652 52 143 9.0 11.0 0.00 0.00 0.00 83
20260507123704 52 138 6.0 9.0 0.00 0.00 0.00 83
20260507122716 52 150 6.0 9.0 0.00 0.00 0.00 80
20260507121715 53 162 8.0 12.0 0.00 0.00 0.00 76
20260507120717 53 162 5.0 11.0 0.00 0.00 0.00 73
20260507115754 53 114 5.0 9.0 0.00 0.00 0.00 78
20260507114715 51 167 9.0 9.0 0.00 0.00 0.00 82
20260507113716 52 143 5.0 9.0 0.00 0.00 0.00 89
20260507112629 51 150 7.0 8.0 0.00 0.00 0.00 97
20260507111618 49 138 5.0 7.0 0.00 0.00 0.00 99
20260507110515 49 127 5.0 7.0 0.00 0.00 0.00 96
20260507105516 47 156 4.0 6.0 0.00 0.00 0.00 97
20260507104554 47 162 6.0 6.0 0.00 0.00 0.00 99
20260507103626 48 138 4.0 7.0 0.00 0.00 0.00 99
20260507102651 49 150 5.0 6.0 0.00 0.00 0.00 99
20260507101641 49 127 5.0 8.0 0.00 0.00 0.00 99
20260507100602 47 156 5.0 8.0 0.00 0.00 0.00 99
20260507095602 46 150 6.0 9.0 0.00 0.00 0.00 96
20260507094639 46 150 6.0 8.0 0.00 0.00 0.00 98
20260507093604 43 162 2.0 13.0 0.00 0.00 0.00 98
20260507092539 46 180 9.0 9.0 0.00 0.00 0.00 99
20260507091618 46 77 3.0 4.0 0.00 0.00 0.00 99
20260507090650 47 37 2.0 5.0 0.00 0.00 0.00 99
20260507085651 47 30 0.0 7.0 0.00 0.00 0.00 99
20260507084643 47 32 6.0 7.0 0.00 0.00 0.00 99
20260507083541 48 103 4.0 7.0 0.00 0.00 0.00 99
20260507082538 48 100 7.0 7.0 0.00 0.00 0.00 99
20260507081618 48 167 3.0 7.0 0.00 0.00 0.00 99
20260507080603 48 276 3.0 9.0 0.00 0.00 0.00 99
20260507075626 47 6 5.0 9.0 0.00 0.00 0.00 99
20260507074618 47 56 3.0 7.0 0.00 0.00 0.00 99
20260507073603 47 60 3.0 7.0 0.00 0.00 0.00 99
20260507072537 46 120 4.0 6.0 0.00 0.00 0.00 99
20260507071526 46 120 3.0 9.0 0.00 0.00 0.00 99
20260507070449 47 138 3.0 9.0 0.00 0.00 0.00 99
20260507065424 47 89 7.0 8.0 0.00 0.00 0.00 99
20260507064449 47 89 2.0 8.0 0.00 0.00 0.00 99
20260507063452 47 90 0.0 5.0 0.00 0.00 0.00 99
20260507062451 47 72 2.0 5.0 0.00 0.00 0.00 99
20260507061415 47 108 4.0 5.0 0.00 0.00 0.00 99
20260507060337 48 103 2.0 6.0 0.00 0.00 0.00 99
20260507055402 48 37 2.0 5.0 0.00 0.00 0.00 99
20260507054437 47 34 2.0 3.0 0.00 0.00 0.00 99
20260507053451 47 51 0.0 5.0 0.00 0.00 0.00 99
20260507052424 47 347 4.0 4.0 0.00 0.00 0.00 99
20260507051427 47 42 3.0 4.0 0.00 0.00 0.00 99
20260507050351 46 90 0.0 3.0 0.00 0.00 0.00 99
20260507045424 46 323 2.0 4.0 0.00 0.00 0.00 99
20260507044339 46 318 4.0 8.0 0.00 0.00 0.00 99
20260507043326 46 307 7.0 7.0 0.00 0.00 0.00 99
20260507042401 46 342 5.0 5.0 0.00 0.00 0.00 99
20260507041314 46 336 3.0 6.0 0.00 0.00 0.00 99
20260507040352 46 307 6.0 6.0 0.00 0.00 0.00 99
20260507035401 46 318 5.0 5.0 0.00 0.00 0.00 99
20260507034338 46 330 0.0 4.0 0.00 0.00 0.00 99
20260507033326 46 270 3.0 4.0 0.00 0.00 0.00 99
20260507032335 46 321 2.0 5.0 0.00 0.00 0.00 99
20260507031312 46 318 4.0 4.0 0.00 0.00 0.00 99
20260507030338 46 294 3.0 4.0 0.00 0.00 0.00 99
20260507025306 46 307 2.0 5.0 0.00 0.00 0.00 99
20260507024313 46 283 5.0 5.0 0.00 0.00 0.00 99
20260507023302 46 30 0.0 5.0 0.00 0.00 0.00 99
20260507022337 46 330 0.0 6.0 0.00 0.00 0.00 99
20260507021414 47 336 6.0 6.0 0.00 0.00 0.00 99
20260507020402 47 336 3.0 5.0 0.00 0.00 0.00 99
20260507015401 47 336 0.0 6.0 0.00 0.00 0.00 99
20260507014424 47 309 5.0 6.0 0.00 0.00 0.00 99
20260507013415 47 309 4.0 4.0 0.00 0.00 0.00 99
20260507012359 47 330 4.0 4.0 0.00 0.00 0.00 99
20260507011425 47 66 0.0 0.0 0.00 0.00 0.00 99
20260507010412 47 58 0.0 0.0 0.00 0.00 0.00 99
20260507005336 47 58 0.0 0.0 0.00 0.00 0.00 99
20260507004339 47 58 0.0 0.0 0.00 0.00 0.00 99
20260507003327 47 58 0.0 4.0 0.00 0.00 0.00 99
20260507002402 47 68 4.0 4.0 0.00 0.00 0.00 99
20260507001312 47 307 0.0 2.0 0.00 0.00 0.00 99
20260507000338 47 307 2.0 2.0 0.00 0.00 0.00 99
20260506235335 47 307 0.0 4.0 0.00 0.00 0.00 99
20260506234313 46 318 4.0 4.0 0.00 0.00 0.00 99
20260506233237 47 264 3.0 3.0 0.00 0.00 0.00 99
20260506232311 47 222 2.0 5.0 0.00 0.00 0.00 99
20260506231352 47 228 5.0 5.0 0.00 0.00 0.00 99
20260506230337 47 193 2.0 3.0 0.00 0.00 0.00 99
20260506225314 47 193 0.0 2.0 0.00 0.00 0.00 99
20260506224300 47 150 2.0 5.0 0.00 0.00 0.00 99
20260506223225 47 156 5.0 7.0 0.00 0.00 0.00 99
20260506222205 48 257 4.0 7.0 0.00 0.00 0.00 99
20260506221152 48 143 3.0 5.0 0.00 0.00 0.00 99
20260506220136 48 150 2.0 7.0 0.00 0.00 0.00 99
20260506215114 48 193 6.0 7.0 0.00 0.00 0.00 99
20260506214101 48 204 5.0 9.0 0.00 0.00 0.00 99
20260506213049 48 150 8.0 9.0 0.00 0.00 0.00 99
20260506212048 48 210 7.0 8.0 0.00 0.00 0.00 99
20260506211000 48 180 7.0 11.0 0.00 0.00 0.00 99
20260506210024 48 210 5.0 11.0 0.00 0.00 0.00 99
20260506205050 48 150 6.0 9.0 0.00 0.00 0.00 99
20260506204037 48 167 7.0 12.0 0.00 0.00 0.00 99
20260506203049 48 217 8.0 12.0 0.00 0.00 0.00 99
20260506202026 48 210 6.0 11.0 0.00 0.00 0.00 99
20260506201040 48 193 9.0 12.0 0.00 0.00 0.00 99
20260506200047 48 186 7.0 13.0 0.00 0.00 0.00 99
20260506195111 47 167 12.0 13.0 0.00 0.00 0.00 99
20260506194138 47 210 11.0 13.0 0.00 0.00 0.00 99
20260506193200 47 180 8.0 13.0 0.00 0.00 0.00 99
20260506192110 47 193 7.0 13.0 0.00 0.00 0.00 99
20260506191114 46 222 9.0 9.0 0.00 0.00 0.00 99